Weather observations for the past three days for
Cape Lisburne, Cape Lisburne LRRS Airport
Imperial (Metric)
Date Time (akdt) Wind (mph) Vis. (mi.) Weather Sky Cond. Temperature (ºF) Relative Humidity Wind Chill (°F) Heat Index (°F) Pressure Precipitation (in)
Air Dwpt 6 hour altimeter (in) sea level (mb) 1 hr 3 hr 6 hr
Max. Min.
09 10:55 E 25 G 30 8.00 Light Showers Snow and Breezy SCT019 24.8 21.2 86% 10 29.95 1014.2
09 09:55 E 22 10.00 Mostly Cloudy and Breezy BKN020 24.6 20.8 24.8 23.4 86% 11 29.96 1014.5
09 08:55 E 21 10.00 Mostly Cloudy and Breezy BKN019 23 19.4 86% 9 29.97 1014.8
09 07:55 E 24 10.00 Mostly Cloudy and Breezy BKN017 23 19.4 86% 8 29.97 1014.9
09 06:55 NE 21 G 29 10.00 Overcast and Breezy OVC013 24.3 21.7 90% 11 29.98 1015.3
09 05:55 E 20 10.00 Overcast OVC012 24.8 21.2 86% 12 29.99 1015.6
09 04:55 E 20 G 29 10.00 Overcast OVC012 24.8 21.2 86% 12 30 1016.0
09 03:55 E 21 10.00 Overcast and Breezy OVC010 24.6 21.4 26.2 20.8 87% 11 30.01 1016.3
09 02:55 E 20 10.00 Mostly Cloudy BKN014 24.8 21.2 86% 12 30.02 1016.6
09 01:55 E 12 10.00 Partly Cloudy SCT015 21.2 19.4 93% 10 30.04 1017.4
09 00:55 SE 15 10.00 A Few Clouds FEW016 23 19.6 87% 11 30.05 1017.5
08 23:55 E 13 10.00 Overcast OVC013 24.8 21.2 86% 14 30.05 1017.6
08 22:55 E 17 10.00 Overcast OVC010 24.8 23 93% 12 30.06 1017.9
08 21:55 E 16 10.00 Overcast OVC011 26.1 23.9 27.3 25.7 92% 14 30.06 1017.8
08 20:55 E 17 10.00 Overcast OVC009 26.6 24.8 93% 15 30.06 1018.0
08 19:55 E 17 10.00 Overcast OVC009 26.6 24.8 93% 15 30.07 1018.2
08 18:55 E 18 10.00 Overcast OVC009 26.8 25 93% 15 30.08 1018.4
08 17:55 E 16 10.00 Overcast OVC009 26.6 24.8 93% 15 30.08 1018.7
08 16:55 E 17 10.00 Overcast OVC008 26.6 24.8 93% 15 30.09 1018.9
08 15:55 E 14 10.00 Overcast OVC007 25.9 23.7 28 25.3 92% 15 30.1 1019.3
08 14:55 NE 14 10.00 Overcast OVC006 24.8 24.8 100% 14 30.1 1019.4
08 13:55 NE 13 10.00 Overcast OVC012 28.4 24.8 86% 19 30.11 1019.6
08 12:55 E 10 10.00 Overcast OVC011 27.7 24.6 88% 19 30.12 1019.9
08 11:55 E 12 10.00 Overcast OVC006 26.6 24.8 93% 17 30.13 1020.1
08 10:55 E 10 10.00 Overcast OVC009 28.4 26.6 93% 20 30.13 1020.2
08 09:55 E 7 10.00 Overcast OVC011 27.7 26.1 30.6 27.7 94% 21 30.14 1020.6
08 08:55 NE 7 10.00 Overcast OVC009 28.4 26.6 93% 22 30.14 1020.7
08 07:57 E 2 10.00 Overcast OVC009 28.4 26.6 93% 30.15 1020.9
08 06:55 E 5 10.00 Overcast OVC012 27.7 26.8 96% 23 30.16 1021.1
08 05:55 E 6 10.00 Overcast OVC011 28.4 28.4 100% 23 30.16 1021.2
08 04:55 NE 8 10.00 Overcast OVC014 30.2 26.6 86% 23 30.16 1021.3
08 03:55 Calm 10.00 Overcast OVC012 29.5 28.4 29.8 29.1 96% 30.17 1021.6
08 02:55 Calm 10.00 Overcast OVC014 30.2 28.4 93% 30.18 1021.8
08 01:55 Calm 10.00 Overcast BKN006 OVC019 30.2 28.4 93% 30.18 1022.1
08 00:55 Calm 10.00 Overcast OVC009 29.3 28 95% 30.19 1022.3
07 23:55 Calm 10.00 Overcast OVC010 30.2 28.4 93% 30.19 1022.5
07 22:55 NE 5 10.00 Overcast OVC008 30.2 28.4 93% 26 30.2 1022.7
07 21:55 NE 8 10.00 Overcast OVC008 29.7 28 29.5 26.6 94% 23 30.2 1022.6
07 20:55 Calm 10.00 Overcast OVC008 30.2 28.4 93% 30.2 1022.6
07 19:55 E 5 10.00 Overcast OVC008 28.4 26.6 93% 24 30.21 1023.0
07 18:55 E 5 10.00 Overcast OVC007 28.8 27.5 95% 24 30.21 1023.1
07 17:55 E 6 10.00 Overcast OVC008 28.4 26.6 93% 23 30.22 1023.3
07 16:55 E 5 10.00 Overcast BKN009 OVC035 28.4 26.6 93% 24 30.22 1023.3
07 15:55 E 6 10.00 Overcast SCT008 OVC036 27 25.7 27.3 22.8 95% 21 30.23 1023.5
07 14:55 E 7 10.00 Overcast SCT008 OVC036 26.6 24.8 93% 20 30.23 1023.6
07 13:55 E 2 10.00 Overcast OVC010 24.8 23 93% 30.23 1023.9
07 12:55 Calm 10.00 Overcast OVC011 24.3 22.3 92% 30.23 1023.7
07 11:55 Calm 10.00 Overcast BKN009 OVC035 23 21.2 93% 30.23 1023.7
07 10:55 Calm 10.00 Overcast OVC008 23 21.2 93% 30.23 1023.7
07 09:55 N 1 10.00 Overcast OVC009 22.8 21 23.2 21.9 93% 30.23 1023.8
07 08:55 Calm 10.00 Overcast BKN010 OVC043 23 21.2 93% 30.23 1023.7
07 07:55 Calm 10.00 Overcast OVC007 23 21.2 93% 30.23 1023.5
07 06:55 N 3 10.00 Overcast OVC006 22.5 21.6 96% 30.23 1023.5
07 05:55 Calm 10.00 Overcast OVC006 23 21.2 93% 30.22 1023.3
07 04:55 N 6 10.00 Overcast OVC006 23 21.2 93% 17 30.22 1023.4
07 03:55 Vrbl 7 10.00 Overcast OVC006 22.3 21 25.3 22.3 95% 15 30.21 1023.1
07 02:55 N 8 10.00 Overcast OVC007 23 21.2 93% 15 30.21 1023.0
07 01:55 Vrbl 5 10.00 Overcast OVC006 23 21.2 93% 18 30.2 1022.7
07 00:55 N 12 10.00 Overcast OVC004 23.2 22.5 97% 13 30.19 1022.4
06 23:55 N 8 10.00 Overcast OVC005 24.8 23 93% 17 30.18 1022.1
06 22:55 N 13 10.00 Overcast OVC006 24.8 23 93% 14 30.18 1022.0
06 21:55 N 6 10.00 Overcast OVC006 25.2 24.3 26.2 23.7 96% 19 30.17 1021.6
06 20:55 NW 13 10.00 Overcast OVC006 26.6 24.8 93% 16 30.16 1021.4
06 19:55 NW 8 10.00 Overcast OVC006 26.6 24.8 93% 19 30.16 1021.3
06 18:55 NW 7 10.00 Overcast OVC006 25.7 24.1 94% 19 30.16 1021.1
06 17:55 NW 9 10.00 Overcast OVC006 24.8 24.8 100% 16 30.14 1020.6
06 16:55 N 8 10.00 Overcast OVC006 24.8 23 93% 17 30.13 1020.3
06 15:55 NW 9 10.00 Overcast OVC006 24.8 23.5 24.1 20.8 95% 16 30.12 1020.0
06 14:55 NW 12 10.00 Overcast OVC008 24.8 23 93% 15 30.12 1019.8
06 13:55 NW 7 10.00 Overcast OVC012 23 21.2 93% 16 30.11 1019.5
06 12:55 NW 9 10.00 Overcast OVC009 22.5 20.3 91% 13 30.1 1019.2
06 11:55 W 8 10.00 Overcast OVC009 21.2 19.4 93% 12 30.09 1018.9
Date Time (akdt) Wind (mph) Vis. (mi.) Weather Sky Cond. Air Dwpt Max. Min. Relative Humidity Wind Chill (°F) Heat Index (°F) altimeter (in) sea level (mb) 1 hr 3 hr 6 hr
6 hour
Temperature (ºF) Pressure Precipitation (in)